Weather History for Hutchinson, MN

Change the Weather History Date:

Saturday, October 9, 2010

  Actual Average Record
Temperature  
Mean Temperature 63 °F -  
Max Temperature 80 °F 61 °F 82 °F (1966)
Min Temperature 46 °F 38 °F 17 °F (2000)
Degree Days  
Heating Degree Days 2    
Growing Degree Days 13 (Base 50)    
Moisture  
Dew Point 52 °F    
Average Humidity 71    
Maximum Humidity 93    
Minimum Humidity 37    
Precipitation  
Precipitation 0.00 in - - ()
Sea Level Pressure  
Sea Level Pressure 29.89 in    
Wind  
Wind Speed 1 mph (ENE)    
Max Wind Speed 10 mph    
Max Gust Speed -    
Visibility 10 miles    
Events Rain , Thunderstorm    
Averages and records for this station are not official NWS values.
T = Trace of Precipitation, MM = Missing Value Source: NWS Daily Summary

Daily Weather History Graph

Daily Weather History Graph

Search for Another Location

Airport:

Trip Planner

Search our weather history database for the weather conditions in past years. The results will help you decide how hot, cold, wet, or windy it might be!

Date:

Astronomy

Oct. 09, 2010 Rise Set
Actual Time 7:25 AM CDT 6:43 PM CDT
Civil Twilight 6:56 AM CDT 7:12 PM CDT
Nautical Twilight 6:22 AM CDT 7:46 PM CDT
Astronomical Twilight 5:48 AM CDT 8:20 PM CDT
Moon 9:56 AM CDT (10/9) 7:28 PM CDT (10/9)
Length of Visible Light 12h 16m
Length of Day
11h 17m
Waxing Crescent, 5% of the Moon is Illuminated
Oct 9
Waxing Crescent
Oct 14
First Quarter
Oct 22
Full
Oct 30
Last Quarter
Nov 5
New

Hourly Weather History & Observations

Time (CDT) Temp. Heat Index Dew Point Humidity Pressure Visibility Wind Dir Wind Speed Gust Speed Precip Events Conditions
12:11 AM 54.5 °F - 49.8 °F 84% 29.88 in 10.0 mi Calm Calm - N/A   Clear
12:32 AM 54.5 °F - 49.8 °F 84% 29.88 in 10.0 mi Calm Calm - N/A   Clear
12:52 AM 54.7 °F - 49.8 °F 84% 29.88 in 10.0 mi Calm Calm - N/A   Clear
1:12 AM 53.6 °F - 49.8 °F 87% 29.88 in 10.0 mi Calm Calm - N/A   Clear
1:32 AM 52.0 °F - 48.4 °F 88% 29.88 in 10.0 mi Calm Calm - N/A   Clear
1:52 AM 52.2 °F - 48.4 °F 87% 29.89 in 10.0 mi Calm Calm - N/A   Clear
2:12 AM 51.8 °F - 48.9 °F 90% 29.89 in 10.0 mi Calm Calm - N/A   Clear
2:32 AM 51.8 °F - 48.6 °F 89% 29.89 in 10.0 mi Calm Calm - N/A   Clear
2:52 AM 52.7 °F - 49.5 °F 89% 29.89 in 10.0 mi Calm Calm - N/A   Clear
3:12 AM 51.8 °F - 48.9 °F 90% 29.88 in 10.0 mi Calm Calm - N/A   Clear
3:32 AM 51.8 °F - 49.1 °F 90% 29.88 in 10.0 mi Calm Calm - N/A   Clear
3:52 AM 51.8 °F - 48.4 °F 88% 29.88 in 10.0 mi Calm Calm - N/A   Clear
4:12 AM 51.8 °F - 48.9 °F 90% 29.88 in 10.0 mi Calm Calm - N/A   Clear
4:32 AM 51.8 °F - 48.4 °F 88% 29.88 in 10.0 mi Calm Calm - N/A   Clear
4:52 AM 51.8 °F - 48.6 °F 89% 29.88 in 10.0 mi Calm Calm - N/A   Clear
5:12 AM 49.3 °F - 46.8 °F 91% 29.88 in 10.0 mi Calm Calm - N/A   Clear
5:32 AM 48.2 °F - 46.0 °F 92% 29.88 in 10.0 mi Calm Calm - N/A   Clear
5:52 AM 48.9 °F - 46.8 °F 92% 29.88 in 10.0 mi NE 3.5 mph - N/A   Clear
6:12 AM 47.7 °F - 45.5 °F 92% 29.89 in 10.0 mi Calm Calm - N/A   Clear
6:32 AM 47.7 °F - 45.5 °F 92% 29.89 in 10.0 mi Calm Calm - N/A   Clear
6:52 AM 47.8 °F - 45.7 °F 92% 29.89 in 10.0 mi Calm Calm - N/A   Clear
7:12 AM 46.8 °F - 44.8 °F 93% 29.89 in 7.0 mi Calm Calm - N/A   Clear
7:32 AM 46.8 °F - 44.8 °F 93% 29.90 in 7.0 mi Calm Calm - N/A   Clear
7:52 AM 46.8 °F - 44.8 °F 93% 29.90 in 7.0 mi Calm Calm - N/A   Clear
8:12 AM 49.3 °F - 47.3 °F 93% 29.90 in 10.0 mi Calm Calm - N/A   Clear
8:32 AM 54.0 °F - 51.6 °F 92% 29.90 in 10.0 mi Calm Calm - N/A   Clear
8:52 AM 56.8 °F - 51.3 °F 82% 29.90 in 10.0 mi Calm Calm - N/A   Clear
9:12 AM 59.4 °F - 52.3 °F 78% 29.90 in 10.0 mi Calm Calm - N/A   Clear
9:32 AM 60.4 °F - 52.2 °F 74% 29.92 in 10.0 mi Calm Calm - N/A Thunderstorm Thunderstorm
9:52 AM 62.2 °F - 52.9 °F 71% 29.93 in 10.0 mi Calm Calm - N/A   Clear
10:12 AM 64.4 °F - 53.2 °F 67% 29.93 in 10.0 mi Calm Calm - N/A Thunderstorm Clear
10:32 AM 67.1 °F - 53.8 °F 62% 29.93 in 10.0 mi Calm Calm - N/A   Clear
10:52 AM 67.1 °F - 54.3 °F 63% 29.93 in 10.0 mi SSE 3.5 mph - N/A   Clear
11:12 AM 67.1 °F - 53.6 °F 62% 29.93 in 10.0 mi Calm Calm - N/A Thunderstorm Scattered Clouds
11:32 AM 67.1 °F - 53.2 °F 61% 29.93 in 10.0 mi Calm Calm - N/A Thunderstorm Thunderstorm
11:52 AM 67.1 °F - 56.5 °F 69% 29.93 in 10.0 mi East 3.5 mph - N/A Rain Light Rain
12:12 PM 67.1 °F - 56.1 °F 68% 29.92 in 10.0 mi NNE 6.9 mph - N/A   Scattered Clouds
12:32 PM 67.1 °F - 55.6 °F 66% 29.90 in 10.0 mi NW 6.9 mph - N/A Rain Light Rain
12:52 PM 68.4 °F - 57.2 °F 67% 29.90 in 10.0 mi ENE 10.4 mph - N/A   Clear
1:12 PM 69.3 °F - 57.0 °F 65% 29.91 in 10.0 mi ESE 8.1 mph - N/A   Clear
1:32 PM 71.8 °F - 58.8 °F 64% 29.91 in 10.0 mi Calm Calm - N/A Thunderstorm Clear
1:52 PM 75.2 °F - 54.7 °F 49% 29.90 in 10.0 mi East 3.5 mph - N/A   Clear
2:12 PM 77.0 °F - 55.2 °F 47% 29.89 in 10.0 mi Calm Calm - N/A   Clear
2:32 PM 77.2 °F - 54.5 °F 45% 29.88 in 10.0 mi NE 3.5 mph - N/A   Clear
2:52 PM 78.1 °F - 53.6 °F 43% 29.88 in 10.0 mi East 4.6 mph - N/A   Clear
3:12 PM 78.8 °F - 55.4 °F 44% 29.88 in 10.0 mi East 5.8 mph - N/A   Clear
3:32 PM 79.3 °F - 54.9 °F 43% 29.88 in 10.0 mi SE 5.8 mph - N/A   Clear
3:52 PM 80.1 °F - 52.7 °F 39% 29.88 in 10.0 mi ESE 6.9 mph - N/A   Clear
4:12 PM 80.4 °F - 51.6 °F 37% 29.88 in 10.0 mi ESE 5.8 mph - N/A   Clear
4:32 PM 80.1 °F 80.0 °F 53.6 °F 40% 29.88 in 10.0 mi East 6.9 mph - N/A   Clear
4:52 PM 80.1 °F - 52.7 °F 39% 29.88 in 10.0 mi ENE 4.6 mph - N/A   Clear
5:12 PM 79.5 °F - 53.4 °F 40% 29.88 in 10.0 mi East 4.6 mph - N/A   Clear
5:32 PM 79.2 °F - 54.1 °F 42% 29.88 in 10.0 mi NE 5.8 mph - N/A   Clear
5:52 PM 76.3 °F - 57.0 °F 51% 29.88 in 10.0 mi NE 4.6 mph - N/A   Clear
6:12 PM 77.0 °F - 56.3 °F 49% 29.88 in 10.0 mi ENE 6.9 mph - N/A   Clear
6:32 PM 71.8 °F - 55.2 °F 56% 29.89 in 10.0 mi NE 6.9 mph - N/A   Clear
6:52 PM 71.1 °F - 56.7 °F 60% 29.89 in 10.0 mi ENE 4.6 mph - N/A   Clear
7:12 PM 67.1 °F - 55.0 °F 65% 29.89 in 10.0 mi ENE 3.5 mph - N/A   Clear
7:32 PM 69.3 °F - 55.6 °F 62% 29.89 in 10.0 mi ENE 4.6 mph - N/A   Clear
7:52 PM 67.1 °F - 55.0 °F 65% 29.90 in 7.0 mi Calm Calm - N/A   Clear
8:12 PM 65.1 °F - 54.9 °F 69% 29.90 in 7.0 mi Calm Calm - N/A   Clear
8:32 PM 60.4 °F - 53.8 °F 79% 29.90 in 10.0 mi Calm Calm - N/A   Clear
8:52 PM 60.4 °F - 52.9 °F 76% 29.90 in 10.0 mi Calm Calm - N/A   Clear
9:12 PM 57.4 °F - 51.3 °F 80% 29.90 in 10.0 mi Calm Calm - N/A   Clear
9:32 PM 57.6 °F - 51.6 °F 81% 29.90 in 3.0 mi Calm Calm - N/A   Haze
9:52 PM 58.3 °F - 52.7 °F 82% 29.90 in 5.0 mi Calm Calm - N/A   Haze
10:12 PM 58.3 °F - 50.5 °F 75% 29.90 in 10.0 mi Calm Calm - N/A   Clear
10:32 PM 55.9 °F - 50.5 °F 82% 29.90 in 10.0 mi Calm Calm - N/A Thunderstorm Clear
10:52 PM 54.5 °F - 50.0 °F 85% 29.90 in 5.0 mi Calm Calm - N/A   Clear
11:12 PM 54.5 °F - 50.9 °F 88% 29.90 in 10.0 mi Calm Calm - N/A   Clear
11:32 PM 52.2 °F - 49.1 °F 89% 29.91 in 3.0 mi North 3.5 mph - N/A   Clear
11:52 PM 52.9 °F - 49.8 °F 89% 29.90 in 5.0 mi Calm Calm - N/A   Clear